Mackinac Island, MI

11:41 PM EDT on May 28, 2017 (GMT -0400)
Mackinac Island

Weather History for KMCD - July, 2013

Change the Weather History Date:

Monday, July 1, 2013

  Actual Average Record
Temperature  
Mean Temperature 63 °F -  
Max Temperature 70 °F 68 °F 87 °F (1975)
Min Temperature 56 °F 53 °F 43 °F (1982)
Degree Days  
Heating Degree Days 2    
Growing Degree Days 13 (Base 50)    
Moisture  
Dew Point 46 °F    
Average Humidity 54    
Maximum Humidity 89    
Minimum Humidity 30    
Precipitation  
Precipitation 0.00 in - - ()
Sea Level Pressure  
Sea Level Pressure 30.15 in    
Wind  
Wind Speed 9 mph (ENE)    
Max Wind Speed 15 mph    
Max Gust Speed 21 mph    
Visibility 10 miles    
Events      
Averages and records for this station are not official NWS values.
T = Trace of Precipitation, MM = Missing Value Source: NWS Daily Summary

Daily Weather History Graph

Daily Weather History Graph

Search for Another Location

Airport or City:

Trip Planner

Search our weather history database for the weather conditions in past years. The results will help you decide how hot, cold, wet, or windy it might be!

Date:

Astronomy

Jul. 01, 2013 Rise Set
Actual Time 5:52 AM EDT 9:32 PM EDT
Civil Twilight 5:14 AM EDT 10:10 PM EDT
Nautical Twilight 4:23 AM EDT 11:01 PM EDT
Astronomical Twilight 3:13 AM EDT 12:10 AM EDT
Moon 1:34 AM EDT (7/1) 3:36 PM EDT (7/1)
Length of Visible Light 16h 56m
Length of Day
15h 39m
Waning Crescent, 35% of the Moon is Illuminated
Jul 1
Waning Crescent
Jul 8
New
Jul 15
First Quarter
Jul 22
Full
Jul 29
Last Quarter

Hourly Weather History & Observations

Time (EDT) Temp. Dew Point Humidity Pressure Visibility Wind Dir Wind Speed Gust Speed Precip Events Conditions
12:13 AM 61.7 °F 44.2 °F 53% 30.06 in 10.0 mi North 8.1 mph - N/A   Clear
12:33 AM 61.7 °F 43.7 °F 52% 30.06 in 10.0 mi North 8.1 mph - N/A   Clear
12:53 AM 61.5 °F 44.1 °F 53% 30.06 in 10.0 mi North 8.1 mph - N/A   Clear
1:14 AM 61.5 °F 43.3 °F 51% 30.07 in 10.0 mi North 5.8 mph - N/A   Clear
1:33 AM 60.8 °F 43.3 °F 53% 30.07 in 10.0 mi North 6.9 mph - N/A   Clear
1:53 AM 60.1 °F 43.7 °F 55% 30.07 in 10.0 mi North 9.2 mph - N/A   Clear
2:14 AM 59.9 °F 43.9 °F 55% 30.07 in 10.0 mi North 8.1 mph - N/A   Clear
2:34 AM 59.2 °F 43.9 °F 57% 30.07 in 10.0 mi North 8.1 mph - N/A   Clear
2:53 AM 59.7 °F 43.3 °F 55% 30.08 in 10.0 mi North 6.9 mph - N/A   Clear
3:14 AM 59.7 °F 43.3 °F 55% 30.07 in 10.0 mi North 6.9 mph - N/A   Clear
3:33 AM 58.5 °F 44.4 °F 60% 30.08 in 10.0 mi North 8.1 mph - N/A   Clear
3:53 AM 58.8 °F 45.0 °F 60% 30.07 in 10.0 mi NNE 11.5 mph - N/A   Clear
4:14 AM 58.8 °F 46.8 °F 64% 30.08 in 10.0 mi NNE 11.5 mph 16.1 mph N/A   Clear
4:33 AM 59.4 °F 46.9 °F 63% 30.08 in 10.0 mi NNE 10.4 mph - N/A   Clear
4:53 AM 59.2 °F 47.7 °F 66% 30.09 in 10.0 mi NE 9.2 mph - N/A   Clear
5:14 AM 59.0 °F 49.1 °F 70% 30.10 in 10.0 mi NE 9.2 mph - N/A   Clear
5:33 AM 61.0 °F 49.1 °F 65% 30.10 in 10.0 mi NE 11.5 mph 16.1 mph N/A   Clear
5:53 AM 61.3 °F 49.6 °F 65% 30.11 in 10.0 mi NE 10.4 mph - N/A   Clear
6:14 AM 60.4 °F 50.2 °F 69% 30.12 in 10.0 mi NE 11.5 mph - N/A   Clear
6:33 AM 60.8 °F 50.4 °F 68% 30.13 in 10.0 mi NE 13.8 mph - N/A   Clear
6:53 AM 61.9 °F 50.2 °F 65% 30.13 in 10.0 mi NE 13.8 mph - N/A   Clear
7:14 AM 62.6 °F 48.7 °F 60% 30.14 in 10.0 mi ENE 12.7 mph - N/A   Clear
7:33 AM 63.0 °F 49.5 °F 61% 30.14 in 10.0 mi NE 9.2 mph - N/A   Clear
7:53 AM 63.5 °F 50.4 °F 62% 30.15 in 10.0 mi ENE 10.4 mph - N/A   Clear
8:14 AM 63.9 °F 49.6 °F 60% 30.15 in 10.0 mi ENE 9.2 mph - N/A   Clear
8:33 AM 63.7 °F 49.3 °F 59% 30.15 in 10.0 mi ENE 6.9 mph - N/A   Scattered Clouds
8:53 AM 64.6 °F 50.2 °F 60% 30.16 in 10.0 mi East 8.1 mph - N/A   Scattered Clouds
9:14 AM 64.6 °F 51.4 °F 62% 30.17 in 10.0 mi East 8.1 mph - N/A   Scattered Clouds
9:33 AM 65.5 °F 50.4 °F 58% 30.17 in 10.0 mi East 12.7 mph 19.6 mph N/A   Clear
9:53 AM 65.3 °F 50.2 °F 58% 30.18 in 10.0 mi East 15.0 mph 18.4 mph N/A   Clear
10:14 AM 65.3 °F 51.3 °F 60% 30.18 in 10.0 mi East 9.2 mph 19.6 mph N/A   Clear
10:33 AM 64.9 °F 50.0 °F 58% 30.18 in 10.0 mi ENE 10.4 mph 18.4 mph N/A   Clear
10:54 AM 65.3 °F 50.4 °F 58% 30.19 in 10.0 mi East 12.7 mph 18.4 mph N/A   Clear
11:13 AM 65.5 °F 48.7 °F 55% 30.19 in 10.0 mi ENE 9.2 mph 19.6 mph N/A   Clear
11:33 AM 66.2 °F 49.6 °F 55% 30.19 in 10.0 mi East 6.9 mph 16.1 mph N/A   Clear
11:53 AM 66.2 °F 49.3 °F 54% 30.19 in 10.0 mi East 13.8 mph 18.4 mph N/A   Clear
12:14 PM 66.0 °F 49.6 °F 55% 30.19 in 10.0 mi East 6.9 mph 20.7 mph N/A   Clear
12:33 PM 65.8 °F 49.3 °F 55% 30.19 in 10.0 mi East 11.5 mph 16.1 mph N/A   Clear
12:54 PM 66.6 °F 48.6 °F 52% 30.19 in 10.0 mi East 10.4 mph 16.1 mph N/A   Clear
1:13 PM 66.0 °F 48.7 °F 54% 30.20 in 10.0 mi ESE 10.4 mph 18.4 mph N/A   Clear
1:33 PM 65.8 °F 47.1 °F 51% 30.20 in 10.0 mi ESE 8.1 mph 19.6 mph N/A   Clear
1:54 PM 66.0 °F 45.5 °F 48% 30.20 in 10.0 mi ESE 10.4 mph 18.4 mph N/A   Clear
2:13 PM 67.1 °F 45.7 °F 46% 30.20 in 10.0 mi ESE 12.7 mph 16.1 mph N/A   Clear
2:33 PM 66.4 °F 43.7 °F 44% 30.19 in 10.0 mi East 10.4 mph - N/A   Clear
2:54 PM 67.1 °F 43.5 °F 42% 30.19 in 10.0 mi ESE 12.7 mph 17.3 mph N/A   Clear
3:13 PM 68.0 °F 43.5 °F 41% 30.19 in 10.0 mi ESE 10.4 mph - N/A   Clear
3:33 PM 68.0 °F 43.0 °F 40% 30.19 in 10.0 mi SE 9.2 mph - N/A   Clear
3:54 PM 68.2 °F 41.7 °F 38% 30.19 in 10.0 mi SE 6.9 mph - N/A   Clear
4:13 PM 69.1 °F 41.2 °F 36% 30.19 in 10.0 mi SE 8.1 mph - N/A   Clear
4:33 PM 69.8 °F 41.0 °F 35% 30.18 in 10.0 mi SE 10.4 mph - N/A   Clear
4:54 PM 70.3 °F 39.6 °F 33% 30.18 in 10.0 mi SE 5.8 mph - N/A   Clear
5:13 PM 70.2 °F 39.2 °F 32% 30.17 in 10.0 mi SE 6.9 mph - N/A   Clear
5:34 PM 69.8 °F 45.1 °F 41% 30.17 in 10.0 mi SSE 3.5 mph - N/A   Clear
5:53 PM 70.9 °F 40.8 °F 34% 30.17 in 10.0 mi SSE 5.8 mph - N/A   Clear
6:13 PM 70.3 °F 38.8 °F 32% 30.17 in 10.0 mi SE 5.8 mph - N/A   Clear
6:34 PM 70.2 °F 37.6 °F 30% 30.17 in 10.0 mi ESE 8.1 mph - N/A   Clear
6:53 PM 70.3 °F 39.2 °F 32% 30.17 in 10.0 mi SE 4.6 mph - N/A   Clear
7:13 PM 69.1 °F 39.0 °F 33% 30.17 in 10.0 mi ESE 4.6 mph - N/A   Clear
7:34 PM 69.6 °F 37.8 °F 31% 30.17 in 10.0 mi ESE 4.6 mph - N/A   Clear
7:53 PM 69.8 °F 38.3 °F 32% 30.17 in 10.0 mi ESE 4.6 mph - N/A   Clear
8:13 PM 68.9 °F 38.7 °F 33% 30.17 in 10.0 mi ESE 4.6 mph - N/A   Clear
8:34 PM 66.4 °F 43.3 °F 43% 30.17 in 10.0 mi ESE 3.5 mph - N/A   Clear
8:53 PM 64.9 °F 45.9 °F 50% 30.17 in 10.0 mi ESE 4.6 mph - N/A   Clear
9:13 PM 62.1 °F 47.1 °F 58% 30.17 in 10.0 mi ESE 5.8 mph - N/A   Clear
9:34 PM 59.9 °F 44.6 °F 57% 30.17 in 10.0 mi ESE 4.6 mph - N/A   Clear
9:53 PM 58.5 °F 43.0 °F 56% 30.18 in 10.0 mi ESE 5.8 mph - N/A   Clear
10:13 PM 57.6 °F 44.1 °F 61% 30.18 in 10.0 mi East 3.5 mph - N/A   Clear
10:34 PM 56.7 °F 48.4 °F 74% 30.19 in 10.0 mi NNE 4.6 mph - N/A   Clear
10:53 PM 57.0 °F 52.5 °F 85% 30.19 in 10.0 mi NE 5.8 mph - N/A   Clear
11:13 PM 57.4 °F 54.1 °F 89% 30.19 in 10.0 mi NE 5.8 mph - N/A   Clear
11:34 PM 57.6 °F 54.1 °F 88% 30.19 in 10.0 mi NE 5.8 mph - N/A   Clear
11:53 PM 56.7 °F 53.2 °F 88% 30.19 in 10.0 mi NNE 5.8 mph - N/A   Clear